TimePST,TemperatureF,Dew PointF,Humidity,Sea Level PressureIn,VisibilityMPH,Wind Direction,Wind SpeedMPH,Gust SpeedMPH,PrecipitationIn,Events,Conditions,WindDirDegrees,DateUTC
12:51 AM,57.0,54.0,89,30.04,10.0,West,6.9,-,N/A,,Clear,280,2012-11-22 08:51:00
1:51 AM,55.9,55.0,97,30.04,10.0,NW,4.6,-,N/A,,Clear,320,2012-11-22 09:51:00
2:24 AM,53.6,53.6,100,30.07,0.8,NNW,5.8,-,N/A,,Mist,340,2012-11-22 10:24:00
2:51 AM,55.0,55.0,100,30.04,0.2,Calm,Calm,-,N/A,Fog,Fog,0,2012-11-22 10:51:00
3:09 AM,53.6,53.6,100,30.07,0.2,WNW,4.6,-,N/A,Fog,Fog,300,2012-11-22 11:09:00
3:16 AM,53.6,53.6,100,30.07,3.0,NW,4.6,-,N/A,,Mist,310,2012-11-22 11:16:00
3:40 AM,53.6,51.8,94,30.06,0.5,Calm,Calm,-,N/A,Fog,Fog,0,2012-11-22 11:40:00
3:51 AM,54.0,53.1,97,30.04,0.8,Calm,Calm,-,N/A,,Mist,0,2012-11-22 11:51:00
3:53 AM,53.6,53.6,100,30.06,4.0,Calm,Calm,-,N/A,,Partly Cloudy,0,2012-11-22 11:53:00
5:12 AM,53.6,51.8,94,30.07,1.2,NNW,3.5,-,N/A,,Clear,340,2012-11-22 13:12:00
5:19 AM,53.6,53.6,100,30.07,0.2,Calm,Calm,-,N/A,Fog,Fog,0,2012-11-22 13:19:00
5:51 AM,53.1,52.0,96,30.05,0.2,Calm,Calm,-,N/A,Fog,Fog,0,2012-11-22 13:51:00
5:57 AM,53.6,53.6,100,30.07,1.8,Calm,Calm,-,N/A,,Scattered Clouds,0,2012-11-22 13:57:00
6:04 AM,53.6,53.6,100,30.08,10.0,WNW,3.5,-,N/A,,Scattered Clouds,300,2012-11-22 14:04:00
6:51 AM,53.1,53.1,100,30.07,10.0,Calm,Calm,-,N/A,,Clear,0,2012-11-22 14:51:00
7:06 AM,53.6,51.8,94,30.09,0.5,Calm,Calm,-,N/A,Fog,Fog,0,2012-11-22 15:06:00
7:34 AM,53.6,53.6,100,30.10,4.0,Calm,Calm,-,N/A,,Scattered Clouds,0,2012-11-22 15:34:00
7:49 AM,53.6,53.6,100,30.11,0.2,Calm,Calm,-,N/A,Fog,Fog,0,2012-11-22 15:49:00
8:51 AM,55.9,55.9,100,30.10,0.2,Calm,Calm,-,N/A,Fog,Fog,0,2012-11-22 16:51:00
8:55 AM,55.4,55.4,100,30.12,1.5,Calm,Calm,-,N/A,,Mostly Cloudy,0,2012-11-22 16:55:00
9:02 AM,55.4,55.4,100,30.12,6.0,Calm,Calm,-,N/A,,Mostly Cloudy,0,2012-11-22 17:02:00
9:10 AM,55.4,55.4,100,30.12,7.0,Calm,Calm,-,N/A,,Scattered Clouds,0,2012-11-22 17:10:00
9:51 AM,57.0,55.9,96,30.10,10.0,NE,3.5,-,N/A,,Clear,40,2012-11-22 17:51:00
10:51 AM,62.1,57.0,84,30.09,10.0,Calm,Calm,-,N/A,,Clear,0,2012-11-22 18:51:00
11:51 AM,63.0,55.9,78,30.06,10.0,West,5.8,-,N/A,,Clear,260,2012-11-22 19:51:00
12:51 PM,62.1,55.9,80,30.05,10.0,West,5.8,-,N/A,,Clear,260,2012-11-22 20:51:00
1:51 PM,63.0,57.0,81,30.04,10.0,NNW,3.5,-,N/A,,Clear,340,2012-11-22 21:51:00
2:51 PM,62.1,53.1,72,30.05,10.0,Calm,Calm,-,N/A,,Clear,0,2012-11-22 22:51:00
3:51 PM,64.0,48.9,58,30.05,10.0,Calm,Calm,-,N/A,,Clear,0,2012-11-22 23:51:00
4:51 PM,62.1,46.0,56,30.06,10.0,ENE,4.6,-,N/A,,Clear,70,2012-11-23 00:51:00
5:51 PM,62.1,44.1,52,30.07,10.0,East,8.1,-,N/A,,Clear,80,2012-11-23 01:51:00
6:51 PM,62.1,45.0,53,30.09,10.0,East,4.6,-,N/A,,Clear,90,2012-11-23 02:51:00
7:51 PM,57.0,48.0,72,30.12,10.0,NNE,5.8,-,N/A,,Clear,20,2012-11-23 03:51:00
8:51 PM,61.0,50.0,67,30.11,9.0,East,5.8,-,N/A,,Clear,80,2012-11-23 04:51:00
9:51 PM,61.0,51.1,70,30.12,8.0,Calm,Calm,-,N/A,,Clear,0,2012-11-23 05:51:00
10:51 PM,63.0,46.9,56,30.10,10.0,East,5.8,-,N/A,,Clear,80,2012-11-23 06:51:00
11:51 PM,63.0,48.0,58,30.11,10.0,East,5.8,-,N/A,,Clear,90,2012-11-23 07:51:00